Weather History for Buffalo, WY

Change the Weather History Date:

Thursday, October 4, 2012

  Actual Average Record
Temperature  
Mean Temperature 34 °F 50 °F  
Max Temperature 39 °F 62 °F 85 °F (2010)
Min Temperature 30 °F 38 °F 27 °F (1966)
Degree Days  
Heating Degree Days 30 15  
Month to date heating degree days 59  
Since 1 July heating degree days 373  
Cooling Degree Days 0 0  
Month to date cooling degree days 0  
Year to date cooling degree days 491  
Moisture  
Dew Point 28 °F    
Average Humidity 84    
Maximum Humidity 100    
Minimum Humidity 57    
Precipitation  
Precipitation 0.03 in 0.05 in 0.53 in (2001)
Month to date precipitation 0.19  
Year to date precipitation 11.77  
Sea Level Pressure  
Sea Level Pressure 30.36 in    
Wind  
Wind Speed 7 mph (North)    
Max Wind Speed 16 mph    
Max Gust Speed 25 mph    
Visibility 7 miles    
Events Snow    
T = Trace of Precipitation, MM = Missing Value Source: NWS Daily Summary

Daily Weather History Graph

Daily Weather History Graph

Search for Another Location

Airport:

Trip Planner

Search our weather history database for the weather conditions in past years. The results will help you decide how hot, cold, wet, or windy it might be!

Date:

Astronomy

Oct. 04, 2012 Rise Set
Actual Time 7:08 AM MDT 6:41 PM MDT
Civil Twilight 6:39 AM MDT 7:10 PM MDT
Nautical Twilight 6:06 AM MDT 7:43 PM MDT
Astronomical Twilight 5:32 AM MDT 8:17 PM MDT
Moon 9:08 PM MDT (10/4) 11:38 AM MDT (10/4)
Length of Visible Light 12h 30m
Length of Day
11h 32m
Waning Gibbous, 81% of the Moon is Illuminated
Oct 4
Waning Gibbous
Oct 8
Last Quarter
Oct 15
New
Oct 21
First Quarter
Oct 29
Full

Hourly Weather History & Observations

Time (MDT) Temp. Windchill Dew Point Humidity Pressure Visibility Wind Dir Wind Speed Gust Speed Precip Events Conditions
12:53 AM 30.9 °F 19.8 °F 28.0 °F 89% 30.45 in 10.0 mi North 16.1 mph 25.3 mph N/A   Partly Cloudy
1:53 AM 30.9 °F 19.8 °F 28.9 °F 92% 30.45 in 10.0 mi North 16.1 mph 25.3 mph N/A   Partly Cloudy
2:23 AM 30.2 °F 21.3 °F 28.4 °F 93% 30.38 in 10.0 mi WNW 10.4 mph - N/A   Mostly Cloudy
2:33 AM 30.2 °F 21.3 °F 28.4 °F 93% 30.38 in 10.0 mi NW 10.4 mph - N/A   Mostly Cloudy
2:53 AM 32.0 °F 26.4 °F 28.9 °F 88% 30.45 in 10.0 mi North 5.8 mph - N/A   Overcast
3:53 AM 32.0 °F 24.8 °F 28.0 °F 85% 30.45 in 10.0 mi WNW 8.1 mph - N/A   Overcast
4:29 AM 32.0 °F 28.7 °F 28.4 °F 87% 30.37 in 10.0 mi WNW 3.5 mph - N/A   Overcast
4:53 AM 32.0 °F 25.6 °F 28.0 °F 85% 30.43 in 10.0 mi North 6.9 mph - N/A   Overcast
5:51 AM 30.2 °F 22.6 °F 28.4 °F 93% 30.37 in 10.0 mi NNE 8.1 mph - N/A   Overcast
5:53 AM 30.9 °F 23.5 °F 28.0 °F 89% 30.43 in 10.0 mi North 8.1 mph - N/A   Overcast
6:53 AM 30.9 °F 24.3 °F 28.0 °F 89% 30.43 in 10.0 mi North 6.9 mph - N/A   Overcast
7:19 AM 30.2 °F - 28.4 °F 93% 30.36 in 10.0 mi Calm Calm - N/A   Overcast
7:53 AM 30.9 °F - 28.0 °F 89% 30.44 in 10.0 mi Calm Calm - N/A   Overcast
8:53 AM 32.0 °F 27.5 °F 28.0 °F 85% 30.43 in 10.0 mi SE 4.6 mph - N/A   Overcast
9:06 AM 32.0 °F 27.5 °F 28.4 °F 87% 30.35 in 10.0 mi SE 4.6 mph - N/A   Overcast
9:53 AM 33.1 °F 28.7 °F 28.0 °F 82% 30.42 in 10.0 mi ESE 4.6 mph - N/A   Overcast
10:53 AM 34.0 °F 27.2 °F 27.0 °F 75% 30.41 in 10.0 mi SE 8.1 mph - N/A   Overcast
11:53 AM 36.0 °F 31.1 °F 27.0 °F 70% 30.40 in 10.0 mi East 5.8 mph - N/A   Overcast
12:53 PM 37.9 °F 34.4 °F 27.0 °F 65% 30.38 in 10.0 mi Variable 4.6 mph - N/A   Overcast
1:09 PM 39.2 °F 37.0 °F 26.6 °F 61% 30.31 in 10.0 mi Variable 3.5 mph - N/A   Overcast
1:26 PM 37.4 °F 33.8 °F 26.6 °F 65% 30.31 in 10.0 mi ESE 4.6 mph - N/A   Overcast
1:53 PM 37.9 °F 35.5 °F 26.1 °F 62% 30.35 in 10.0 mi ENE 3.5 mph - N/A   Overcast
2:35 PM 39.2 °F - 26.6 °F 61% 30.29 in 10.0 mi Calm Calm - N/A   Overcast
2:53 PM 39.0 °F 34.8 °F 26.1 °F 60% 30.33 in 10.0 mi Variable 5.8 mph - N/A   Overcast
3:53 PM 39.0 °F 36.8 °F 25.0 °F 57% 30.33 in 10.0 mi ENE 3.5 mph - N/A   Overcast
4:53 PM 37.9 °F 35.5 °F 25.0 °F 60% 30.34 in 10.0 mi NE 3.5 mph - N/A   Overcast
5:53 PM 37.0 °F 33.3 °F 26.1 °F 65% 30.35 in 10.0 mi NNW 4.6 mph - 0.00 in   Overcast
6:53 PM 35.1 °F 30.1 °F 28.0 °F 76% 30.36 in 9.0 mi NW 5.8 mph - 0.00 in Snow Light Snow
7:20 PM 33.8 °F 27.7 °F 28.4 °F 81% 30.31 in 2.5 mi NW 6.9 mph - 0.00 in Snow Light Snow
7:31 PM 33.8 °F 27.7 °F 28.4 °F 81% 30.31 in 3.0 mi NW 6.9 mph - 0.00 in Snow Light Snow
7:48 PM 33.8 °F 28.6 °F 30.2 °F 87% 30.31 in 2.0 mi NW 5.8 mph - 0.00 in Snow Light Snow
7:53 PM 33.1 °F 26.9 °F 30.0 °F 89% 30.39 in 1.8 mi NNW 6.9 mph - 0.00 in Snow Light Snow
8:03 PM 32.0 °F 25.6 °F 28.4 °F 87% 30.32 in 2.5 mi North 6.9 mph - 0.00 in Snow Light Snow
8:15 PM 32.0 °F 25.6 °F 28.4 °F 87% 30.32 in 3.0 mi North 6.9 mph - 0.00 in Snow Light Snow
8:28 PM 32.0 °F 25.6 °F 28.4 °F 87% 30.32 in 2.0 mi North 6.9 mph - 0.00 in Snow Light Snow
8:48 PM 32.0 °F 28.7 °F 28.4 °F 87% 30.32 in 3.0 mi North 3.5 mph - 0.00 in Snow Light Snow
8:53 PM 32.0 °F 27.5 °F 28.9 °F 88% 30.39 in 3.0 mi North 4.6 mph - 0.00 in Snow Light Snow
9:25 PM 30.2 °F 26.7 °F 30.2 °F 100% 30.32 in 3.0 mi North 3.5 mph - 0.01 in Snow Light Snow
9:30 PM 30.2 °F 26.7 °F 30.2 °F 100% 30.32 in 2.5 mi North 3.5 mph - 0.01 in Snow Light Snow
9:46 PM 30.2 °F - 30.2 °F 100% 30.32 in 2.0 mi Calm Calm - 0.01 in Snow Light Snow
9:53 PM 30.9 °F - 30.0 °F 96% 30.40 in 2.5 mi Calm Calm - 0.01 in Snow Light Snow
10:00 PM 30.2 °F - 30.2 °F 100% 30.32 in 3.0 mi Calm Calm - 0.00 in Snow Light Snow
10:10 PM 30.2 °F - 30.2 °F 100% 30.32 in 2.5 mi Calm Calm - 0.00 in Snow Light Snow
10:53 PM 30.9 °F - 28.9 °F 92% 30.39 in 2.5 mi Calm Calm - 0.01 in Snow Light Snow
11:26 PM 30.2 °F - 28.4 °F 93% 30.32 in 2.5 mi Calm Calm - 0.01 in Snow Light Snow
11:45 PM 30.2 °F - 30.2 °F 100% 30.32 in 2.5 mi Calm Calm - 0.01 in Snow Light Snow
11:53 PM 30.9 °F - 28.9 °F 92% 30.38 in 2.5 mi Calm Calm - 0.01 in Snow Light Snow